This is the latest recevied weather packets stored in our database for station/object K5MGY. If no packets are shown the sender has not sent any weather packets the latest 10 day(s).
| Time | Temp. | Humidity | Pressure | Rain* | Wind** | Luminosity | Snow |
|---|---|---|---|---|---|---|---|
| 1777930749 | 27.78° C | 54% | 1031.5 hPa | 0 mm | - | 120 W/m² | - |
| 1777930444 | 27.78° C | 55% | 1031.6 hPa | 0 mm | - | 113 W/m² | - |
| 1777930142 | 27.78° C | 55% | 1031.5 hPa | 0 mm | - | 173 W/m² | - |
| 1777929837 | 27.78° C | 55% | 1031.9 hPa | 0 mm | - | 137 W/m² | - |
| 1777929536 | 27.78° C | 55% | 1031.8 hPa | 0 mm | - | 374 W/m² | - |
| 1777929231 | 27.78° C | 55% | 1031.7 hPa | 0 mm | - | 110 W/m² | - |
| 1777928929 | 27.78° C | 54% | 1031.8 hPa | 0 mm | - | 407 W/m² | - |
| 1777928626 | 27.78° C | 54% | 1032.1 hPa | 0 mm | - | 537 W/m² | - |
| 1777928323 | 27.78° C | 54% | 1032.1 hPa | 0 mm | - | 159 W/m² | - |
| 1777928021 | 27.78° C | 54% | 1032.1 hPa | 0 mm | - | 142 W/m² | - |
| 1777927719 | 27.78° C | 55% | 1032.4 hPa | 0 mm | - | 119 W/m² | - |
| 1777927417 | 27.78° C | 54% | 1032.4 hPa | 0 mm | - | 89 W/m² | - |
| 1777927116 | 27.78° C | 54% | 1032.6 hPa | 0 mm | - | 78 W/m² | - |
| 1777926813 | 27.78° C | 53% | 1032.6 hPa | 0 mm | - | 86 W/m² | - |
| 1777926508 | 27.78° C | 53% | 1032.5 hPa | 0 mm | - | 99 W/m² | - |
| 1777926206 | 27.78° C | 54% | 1033 hPa | 0 mm | - | 111 W/m² | - |
| 1777925902 | 27.78° C | 54% | 1033 hPa | 0 mm | - | 342 W/m² | - |
| 1777925600 | 27.78° C | 54% | 1033.1 hPa | 0 mm | - | 413 W/m² | - |
| 1777925297 | 27.78° C | 54% | 1033 hPa | 0 mm | - | 652 W/m² | - |
| 1777924993 | 27.22° C | 54% | 1033.3 hPa | 0 mm | - | 577 W/m² | - |
| 1777924689 | 27.22° C | 54% | 1033.4 hPa | 0 mm | - | 585 W/m² | - |
| 1777924385 | 27.22° C | 55% | 1033.6 hPa | 0 mm | - | 622 W/m² | - |
| 1777924082 | 27.22° C | 54% | 1033.7 hPa | 0 mm | - | 257 W/m² | - |
| 1777923779 | 27.22° C | 54% | 1033.7 hPa | 0 mm | - | 630 W/m² | - |
| 1777923475 | 27.22° C | 54% | 1033.8 hPa | 0 mm | - | 635 W/m² | - |
* Rain latest hour (hover to see other rain measurements)
** Current wind speed in m/s (hover to see current wind gust speed)